Weather History for Covington, KY

Change the Weather History Date:

Friday, December 28, 2012

  Actual Average Record
Temperature  
Mean Temperature 30 °F 32 °F  
Max Temperature 34 °F 39 °F 67 °F (1984)
Min Temperature 26 °F 24 °F -3 °F (1924)
Degree Days  
Heating Degree Days 35 34  
Month to date heating degree days 648 857  
Since 1 July heating degree days 1754 1817  
Cooling Degree Days 0 0  
Month to date cooling degree days 0 0  
Year to date cooling degree days 1439 1121  
Moisture  
Dew Point 27 °F    
Average Humidity 82    
Maximum Humidity 92    
Minimum Humidity 72    
Precipitation  
Precipitation 0.07 in 0.10 in 1.14 in (1988)
Month to date precipitation 5.57 3.05  
Year to date precipitation 38.60 42.20  
Snow  
Snow 0.70 in 0.20 in 5.80 in (1943)
Month to date snowfall 4.5 4.2  
Since 1 July snowfall 4.5 5.0  
Snow Depth 1.00 in    
Sea Level Pressure  
Sea Level Pressure 30.00 in    
Wind  
Wind Speed 5 mph (East)    
Max Wind Speed 10 mph    
Max Gust Speed 14 mph    
Visibility 6 miles    
Events Fog , Snow    
T = Trace of Precipitation, MM = Missing Value Source: NWS Daily Summary

Daily Weather History Graph

Daily Weather History Graph

Search for Another Location

Airport:

Trip Planner

Search our weather history database for the weather conditions in past years. The results will help you decide how hot, cold, wet, or windy it might be!

Date:

Astronomy

Dec. 28, 2012 Rise Set
Actual Time 7:57 AM EST 5:24 PM EST
Civil Twilight 7:27 AM EST 5:54 PM EST
Nautical Twilight 6:53 AM EST 6:27 PM EST
Astronomical Twilight 6:21 AM EST 7:00 PM EST
Moon 5:59 PM EST (12/28) 7:51 AM EST (12/28)
Length of Visible Light 10h 27m
Length of Day
9h 27m
Full, 100% of the Moon is Illuminated
Dec 28
Full
Jan 4
Last Quarter
Jan 11
New
Jan 18
First Quarter
Jan 26
Full

Hourly Weather History & Observations

Time (EST) Temp. Windchill Dew Point Humidity Pressure Visibility Wind Dir Wind Speed Gust Speed Precip Events Conditions
12:52 AM 27.0 °F - 24.1 °F 89% 30.15 in 8.0 mi Calm Calm - N/A   Overcast
1:52 AM 28.9 °F - 23.0 °F 78% 30.15 in 9.0 mi Calm Calm - N/A   Overcast
2:52 AM 28.9 °F - 25.0 °F 85% 30.17 in 9.0 mi Calm Calm - N/A   Overcast
3:52 AM 28.9 °F 22.8 °F 25.0 °F 85% 30.15 in 8.0 mi ENE 5.8 mph - N/A   Overcast
4:52 AM 28.9 °F 21.9 °F 25.0 °F 85% 30.12 in 8.0 mi ENE 6.9 mph - N/A   Overcast
5:52 AM 28.9 °F 21.1 °F 25.0 °F 85% 30.11 in 10.0 mi ESE 8.1 mph - N/A   Overcast
6:52 AM 28.9 °F 21.1 °F 25.0 °F 85% 30.10 in 8.0 mi East 8.1 mph - N/A   Overcast
7:52 AM 28.9 °F 21.9 °F 25.0 °F 85% 30.10 in 7.0 mi ESE 6.9 mph - N/A   Overcast
8:42 AM 28.4 °F - 24.8 °F 86% 30.10 in 7.0 mi Calm Calm - N/A   Mostly Cloudy
8:52 AM 28.4 °F 23.3 °F 24.8 °F 86% 30.10 in 8.0 mi SE 4.6 mph - N/A   Overcast
9:52 AM 30.0 °F 26.5 °F 25.0 °F 82% 30.15 in 8.0 mi SE 3.5 mph - N/A   Overcast
10:31 AM 30.2 °F 25.4 °F 24.8 °F 80% 30.12 in 7.0 mi ESE 4.6 mph - N/A   Overcast
10:52 AM 30.9 °F 22.8 °F 25.0 °F 79% 30.15 in 7.0 mi SSE 9.2 mph - N/A   Overcast
11:52 AM 32.0 °F 24.2 °F 25.0 °F 75% 30.12 in 8.0 mi SSE 9.2 mph - N/A   Overcast
12:34 PM 32.0 °F 26.4 °F 26.6 °F 80% 30.05 in 8.0 mi SSE 5.8 mph - N/A   Overcast
12:52 PM 32.0 °F 25.6 °F 26.1 °F 79% 30.05 in 8.0 mi ESE 6.9 mph - N/A   Overcast
1:52 PM 33.1 °F 28.7 °F 26.1 °F 75% 30.02 in 8.0 mi ESE 4.6 mph - N/A   Overcast
2:52 PM 33.1 °F 27.7 °F 27.0 °F 78% 30.01 in 8.0 mi SSE 5.8 mph - N/A   Overcast
3:52 PM 33.1 °F 26.1 °F 27.0 °F 78% 29.97 in 9.0 mi East 8.1 mph - N/A   Overcast
4:01 PM 33.8 °F 27.0 °F 26.6 °F 75% 29.95 in 9.0 mi ESE 8.1 mph - N/A   Overcast
4:52 PM 33.1 °F 28.7 °F 27.0 °F 78% 29.98 in 9.0 mi East 4.6 mph - N/A   Mostly Cloudy
5:13 PM 33.8 °F 30.8 °F 28.4 °F 81% 29.96 in 8.0 mi East 3.5 mph - N/A   Overcast
5:52 PM 33.1 °F - 28.0 °F 82% 29.99 in 9.0 mi Calm Calm - N/A   Overcast
6:52 PM 32.0 °F 27.5 °F 28.0 °F 85% 29.96 in 9.0 mi East 4.6 mph - N/A   Overcast
7:23 PM 33.8 °F 29.6 °F 28.4 °F 81% 29.92 in 8.0 mi East 4.6 mph - N/A   Overcast
7:52 PM 33.1 °F 26.9 °F 28.9 °F 85% 29.93 in 8.0 mi East 6.9 mph - 0.00 in   Overcast
8:52 PM 33.1 °F 27.7 °F 28.0 °F 82% 29.91 in 7.0 mi East 5.8 mph - 0.00 in Snow Light Snow
9:47 PM 33.8 °F 27.0 °F 30.2 °F 87% 29.85 in 2.0 mi East 8.1 mph - N/A Snow Light Snow
9:52 PM 33.1 °F 26.1 °F 30.0 °F 89% 29.86 in 2.0 mi ENE 8.1 mph - 0.00 in Snow Light Snow
10:03 PM 33.8 °F 27.7 °F 30.2 °F 87% 29.84 in 3.0 mi ENE 6.9 mph - 0.00 in Snow Light Snow
10:40 PM 32.0 °F 27.5 °F 30.2 °F 93% 29.85 in 2.0 mi East 4.6 mph - 0.01 in Snow Light Snow
10:52 PM 32.0 °F 28.7 °F 30.0 °F 92% 29.87 in 1.5 mi ESE 3.5 mph - 0.01 in Snow Light Snow
11:10 PM 32.0 °F 27.5 °F 30.2 °F 93% 29.85 in 0.8 mi East 4.6 mph - 0.01 in Snow Light Snow
11:17 PM 32.0 °F 26.4 °F 30.2 °F 93% 29.84 in 0.5 mi East 5.8 mph - 0.03 in Fog , Snow Snow
11:35 PM 32.0 °F 27.5 °F 30.2 °F 93% 29.83 in 0.5 mi ENE 4.6 mph - 0.05 in Snow Light Snow
11:43 PM 32.0 °F 26.4 °F 30.2 °F 93% 29.82 in 0.5 mi ENE 5.8 mph - 0.05 in Snow Light Snow
11:52 PM 32.0 °F 26.4 °F 30.9 °F 96% 29.83 in 0.5 mi ENE 5.8 mph - 0.06 in Snow Light Snow